Weather History for Tucson, AZ

Change the Weather History Date:

Monday, December 10, 2012

  Actual Average Record
Temperature  
Mean Temperature 50 °F 52 °F  
Max Temperature 62 °F 65 °F 82 °F (1950)
Min Temperature 38 °F 39 °F 19 °F (1916)
Degree Days  
Heating Degree Days 15 13  
Month to date heating degree days 48 119  
Since 1 July heating degree days 115 325  
Cooling Degree Days 0 0  
Month to date cooling degree days 0 0  
Year to date cooling degree days 3597 3146  
Moisture  
Dew Point 13 °F    
Average Humidity 26    
Maximum Humidity 39    
Minimum Humidity 12    
Precipitation  
Precipitation 0.00 in 0.03 in 0.89 in (1965)
Month to date precipitation 0.00 0.30  
Year to date precipitation 6.73 10.96  
Snow  
Snow 0.00 in - - ()
Month to date snowfall 0.0  
Snow Depth 0.00 in    
Sea Level Pressure  
Sea Level Pressure 30.04 in    
Wind  
Wind Speed 4 mph (North)    
Max Wind Speed 12 mph    
Max Gust Speed 15 mph    
Visibility 10 miles    
Events      
T = Trace of Precipitation, MM = Missing Value Source: NWS Daily Summary

Daily Weather History Graph

Daily Weather History Graph

Search for Another Location

Airport:

Trip Planner

Search our weather history database for the weather conditions in past years. The results will help you decide how hot, cold, wet, or windy it might be!

Date:

Astronomy

Dec. 10, 2012 Rise Set
Actual Time 7:14 AM MST 5:19 PM MST
Civil Twilight 6:47 AM MST 5:46 PM MST
Nautical Twilight 6:16 AM MST 6:17 PM MST
Astronomical Twilight 5:46 AM MST 6:46 PM MST
Moon 4:08 AM MST (12/10) 3:06 PM MST (12/10)
Length of Visible Light 10h 59m
Length of Day
10h 05m
Waning Crescent, 10% of the Moon is Illuminated
Dec 10
Waning Crescent
Dec 13
New
Dec 19
First Quarter
Dec 28
Full
Jan 4
Last Quarter

Hourly Weather History & Observations

Time (MST) Temp. Windchill Dew Point Humidity Pressure Visibility Wind Dir Wind Speed Gust Speed Precip Events Conditions
12:53 AM 48.0 °F - 19.9 °F 33% 30.05 in 10.0 mi Calm Calm - N/A   Clear
1:53 AM 42.1 °F 40.2 °F 18.0 °F 38% 30.06 in 10.0 mi SSE 3.5 mph - N/A   Clear
2:53 AM 42.1 °F - 19.0 °F 40% 30.06 in - Calm Calm - N/A   Clear
3:53 AM 43.0 °F - 18.0 °F 37% 30.06 in - Calm Calm - N/A   Clear
4:53 AM 41.0 °F 39.0 °F 16.0 °F 36% 30.06 in - ESE 3.5 mph - N/A   Clear
5:53 AM 43.0 °F 38.8 °F 10.9 °F 27% 30.07 in - NNW 6.9 mph - N/A   Clear
6:53 AM 42.1 °F 39.2 °F 10.0 °F 27% 30.08 in - North 4.6 mph - N/A   Clear
7:53 AM 39.0 °F 34.8 °F 14.0 °F 36% 30.10 in 10.0 mi SSE 5.8 mph - N/A   Clear
8:53 AM 42.1 °F 38.4 °F 17.1 °F 37% 30.10 in 10.0 mi South 5.8 mph - N/A   Clear
9:53 AM 48.9 °F - 18.0 °F 29% 30.10 in 10.0 mi Calm Calm - N/A   Clear
10:53 AM 55.0 °F - 15.1 °F 21% 30.09 in 10.0 mi ENE 5.8 mph - N/A   Clear
11:53 AM 57.0 °F - 14.0 °F 18% 30.06 in 10.0 mi North 6.9 mph - N/A   Clear
12:53 PM 57.9 °F - 14.0 °F 18% 30.02 in 10.0 mi Variable 3.5 mph - N/A   Clear
1:53 PM 61.0 °F - 16.0 °F 17% 30.00 in - North 5.8 mph - N/A   Clear
2:00 PM 60.8 °F - 15.8 °F 17% 30.04 in 10.0 mi Variable 5.8 mph - N/A   Clear
2:53 PM 62.1 °F - 10.9 °F 13% 29.99 in 10.0 mi North 6.9 mph - N/A   Clear
3:53 PM 61.0 °F - 12.0 °F 15% 29.98 in 10.0 mi NW 5.8 mph - N/A   Clear
4:53 PM 60.1 °F - 9.0 °F 13% 29.98 in 10.0 mi WNW 5.8 mph - N/A   Clear
5:53 PM 54.0 °F - 9.0 °F 17% 29.99 in 10.0 mi Variable 4.6 mph - N/A   Clear
6:53 PM 52.0 °F - 9.0 °F 18% 30.01 in 10.0 mi NNW 3.5 mph - N/A   Clear
7:53 PM 50.0 °F - 7.0 °F 18% 30.03 in 10.0 mi Calm Calm - N/A   Clear
8:53 PM 46.0 °F 43.9 °F 6.1 °F 20% 30.04 in 10.0 mi West 4.6 mph - N/A   Clear
9:53 PM 42.1 °F 40.2 °F 6.1 °F 23% 30.04 in 10.0 mi South 3.5 mph - N/A   Clear
10:53 PM 41.0 °F 36.4 °F 5.0 °F 23% 30.04 in 10.0 mi SE 6.9 mph - N/A   Clear
11:53 PM 37.9 °F 33.5 °F 5.0 °F 25% 30.04 in - SE 5.8 mph - N/A   Clear